TimeMST,TemperatureF,Dew PointF,Humidity,Sea Level PressureIn,VisibilityMPH,Wind Direction,Wind SpeedMPH,Gust SpeedMPH,PrecipitationIn,Events,Conditions,WindDirDegrees,DateUTC
12:53 AM,37.9,9.0,30,29.94,10.0,West,9.2,-,N/A,,Clear,260,2013-02-17 07:53:00
1:53 AM,39.0,8.1,28,29.91,10.0,WNW,11.5,-,N/A,,Clear,290,2013-02-17 08:53:00
2:53 AM,34.0,8.1,34,29.90,10.0,WNW,5.8,-,N/A,,Clear,290,2013-02-17 09:53:00
3:53 AM,33.1,9.0,37,29.89,10.0,West,9.2,-,N/A,,Clear,270,2013-02-17 10:53:00
4:53 AM,35.1,8.1,33,29.89,10.0,West,12.7,-,N/A,,Clear,260,2013-02-17 11:53:00
5:53 AM,30.0,8.1,40,29.91,10.0,WSW,12.7,-,N/A,,Clear,240,2013-02-17 12:53:00
6:53 AM,34.0,9.0,35,29.91,10.0,West,12.7,-,N/A,,Clear,280,2013-02-17 13:53:00
7:53 AM,39.0,10.0,30,29.89,10.0,West,6.9,-,N/A,,Clear,270,2013-02-17 14:53:00
8:53 AM,46.9,9.0,21,29.89,10.0,West,12.7,-,N/A,,Clear,260,2013-02-17 15:53:00
9:53 AM,55.0,6.1,14,29.85,10.0,West,11.5,-,N/A,,Clear,270,2013-02-17 16:53:00
10:53 AM,60.1,5.0,11,29.81,10.0,WSW,6.9,-,N/A,,Clear,250,2013-02-17 17:53:00
11:53 AM,64.9,5.0,9,29.74,10.0,SSW,8.1,-,N/A,,Clear,200,2013-02-17 18:53:00
12:53 PM,68.0,-2.9,6,29.68,10.0,West,8.1,-,N/A,,Clear,260,2013-02-17 19:53:00
1:53 PM,72.0,-9.9,4,29.63,10.0,West,26.5,35.7,N/A,,Clear,260,2013-02-17 20:53:00
2:53 PM,70.0,-11.0,4,29.61,10.0,WSW,25.3,34.5,N/A,,Clear,240,2013-02-17 21:53:00
3:53 PM,73.0,-11.9,4,29.57,10.0,SW,29.9,35.7,N/A,,Clear,230,2013-02-17 22:53:00
4:53 PM,68.0,-4.0,6,29.57,10.0,SSW,21.9,31.1,N/A,,Clear,210,2013-02-17 23:53:00
5:53 PM,60.1,-2.9,8,29.61,10.0,SSW,13.8,-,N/A,,Clear,210,2013-02-18 00:53:00
6:53 PM,53.1,-0.9,11,29.61,10.0,SW,11.5,-,N/A,,Clear,220,2013-02-18 01:53:00
7:53 PM,50.0,1.9,14,29.61,10.0,SW,10.4,-,N/A,,Clear,220,2013-02-18 02:53:00
8:53 PM,48.9,3.0,15,29.60,10.0,SW,6.9,-,N/A,,Clear,230,2013-02-18 03:53:00
10:53 PM,46.9,5.0,18,29.55,10.0,WSW,11.5,-,N/A,,Clear,240,2013-02-18 05:53:00
11:53 PM,44.1,5.0,20,29.55,10.0,SW,11.5,-,N/A,,Clear,230,2013-02-18 06:53:00